{"data":{"norad_id":65982,"epoch":"2026-09-20T14:27:52.962048Z","epoch_age_seconds":131496,"freshness":"FRESH","line1":"1 65982U 25230J   26263.60269632  .00000130  00000+0  10981-3 0  9990","line2":"2 65982  81.3000 123.9704 0000881  74.4720 285.6533 13.82263731 46975","mean_motion":13.82263731,"eccentricity":8.81e-5,"inclination_deg":81.3,"raan_deg":123.9704,"arg_perigee_deg":74.472,"mean_anomaly_deg":285.6533,"bstar":0.00010981,"rev_number":4697,"period_min":104.17693582673,"perigee_km":955.22239916699,"apogee_km":956.5146509405,"semimajor_km":7334.0055250537,"source":"CELESTRAK","updated_at":"2026-09-21T09:00:15.688451Z"}}